Weather Roundup
Issued by NWS

Home | Current Version | Previous Version | Text Only | Print | Product List | Glossary On
Versions: 1 2 3 4 5 6 7 8 9 10 11 12 13 14 15 16 17 18 19 20 21 22 23 24 25 26 27 28 29 30 31 32 33 34 35 36 37 38 39 40 41 42 43 44 45 46 47 48 49 50
000
NZUS93 KARX 280310
HRRWXR

CURRENT HOURLY OBSERVATIONS ACROSS
MUCH OF THE UPPER MISSISSIPPI VALLEY
NATIONAL WEATHER SERVICE LA CROSSE WI
1000 PM CDT FRI MAY 27 2016


...SOUTHEAST MINNESOTA...


CITY           SKY/WX    TMP DP  RH WIND       PRES   REMARKS
ROCHESTER      CLEAR     63  62  97 N3        29.77R
ROCHESTER/MAYO FAIR      65  65 100 CALM      29.76R
WINONA         CLOUDY    70  66  88 CALM      29.75R
AUSTIN         CLEAR     63  61  94 CALM      29.77R
ALBERT LEA     CLEAR     64  63  94 CALM      29.76R
DODGE CENTER   CLEAR     61  59  94 CALM      29.77R FOG
PRESTON        MOCLDY    64  62  91 CALM      29.77R
OWATONNA       CLEAR     63  61  94 CALM      29.76R
FARIBAULT      CLOUDY    63  61  94 CALM      29.76R
$$

...ELSEWHERE IN MINNESOTA...


CITY           SKY/WX    TMP DP  RH WIND       PRES   REMARKS
MINNEAPOLIS    CLOUDY    64  60  87 N5        29.75R
INTNL FALLS    MOCLDY    61  53  75 NE5       29.86R
DULUTH         CLOUDY    53  51  93 E16       29.82S
RED WING       CLEAR     63  63 100 CALM      29.74R FOG
REDWOOD FALLS  PTCLDY    63  60  90 E5        29.75R
MANKATO        MOCLDY    64  59  82 E6        29.75R
WORTHINGTON    CLOUDY    66  60  81 NE10      29.75R
FAIRMONT       PTCLDY    68  61  77 E6        29.75R
$$

...SOUTHWEST WISCONSIN...


CITY           SKY/WX    TMP DP  RH WIND       PRES   REMARKS
LA CROSSE      CLOUDY    69  67  93 SE6       29.74R FOG
PRAIRIE DU CHI CLOUDY    67  64  91 CALM      29.76R
BOSCOBEL       PTCLDY    66  64  93 CALM      29.76R
LONE ROCK      MOCLDY    72  66  81 SE5       29.77R
PLATTEVILLE    MOCLDY    71  68  92 SE8       29.78S
FORT MC COY    PTCLDY    67  67  99 SE3       29.77R
CAMP DOUGLAS   MOCLDY    68 N/A N/A SE6       29.77R
MAUSTON-NEW LI CLOUDY    69  68  96 SE5       29.76R
VIROQUA        CLOUDY    66  65  97 S6        29.78R
WIS DELLS      PTCLDY    69  65  86 S7        29.79R
$$

...ELSEWHERE IN WISCONSIN...


CITY           SKY/WX    TMP DP  RH WIND       PRES   REMARKS
MILWAUKEE      CLOUDY    68  65  90 S8        29.85R
MADISON        PTCLDY    71  66  84 S5        29.79R
GREEN BAY      CLOUDY    66  64  93 SE9       29.82F FOG
EAU CLAIRE     CLOUDY    65  64  97 S5        29.73S
BLACK RVR FLS  MOCLDY    69  68  98 CALM      29.75R
MEDFORD        CLOUDY    65  65 100 SE7       29.78R
WAUSAU         CLOUDY    67  64  90 E6        29.78R
WIS RAPIDS     MOCLDY    67  64  90 SE7       29.79R
MARSHFIELD     CLOUDY    68  65  90 SE9       29.78R
RICE LAKE      CLOUDY    61  60  96 N7        29.76S
$$

...NORTHEAST IOWA...


CITY           SKY/WX    TMP DP  RH WIND       PRES   REMARKS
WATERLOO       CLOUDY    66  63  90 CALM      29.74R
DUBUQUE        MOCLDY    71  67  87 SE10      29.78R
DECORAH        PTCLDY    66  66 100 CALM      29.75R FOG
MASON CITY     MOCLDY    65  63  93 E5        29.77R
CHARLES CITY   CLOUDY    66  66 100 CALM      29.77R
OELWEIN        CLOUDY    68  66  94 E6        29.77R
$$

...ELSEWHERE IN IOWA...


CITY           SKY/WX    TMP DP  RH WIND       PRES   REMARKS
DES MOINES     LGT RAIN  71  64  78 SE8       29.76R
IOWA CITY      TSTM      66  62  87 VRB5      29.79R FOG
FORT DODGE     MOCLDY    70  61  73 SE5       29.75R
MARSHALLTOWN   CLOUDY    68  64  87 SE7       29.75R
CEDAR RAPIDS   LGT RAIN  64  64 100 E6        29.76S
$$

...NORTHERN ILLINOIS...


CITY           SKY/WX    TMP DP  RH WIND       PRES   REMARKS
CHICAGO-OHARE  LGT RAIN  71  65  81 S17       29.87R
CHICAGO-MIDWAY CLOUDY    71  66  84 S9        29.88R
MOLINE         MOCLDY    74  67  78 S8        29.77R
ROCKFORD       MOCLDY    74  67  78 S12       29.83R
PEORIA         LGT RAIN  71  67  87 S14G23    29.83R
$$

NOTE: "FAIR" INDICATES FEW OR NO CLOUDS BELOW 12,000 FEET WITH NO
SIGNIFICANT WEATHER AND/OR OBSTRUCTIONS TO VISIBILITY. WIND
SPEEDS ARE IN MILES-PER-HOUR.




USA.gov is the U.S. government's official web portal to all federal, state and local government web resources and services.